Weather History for Nassau, Bahamas

Change the Weather History Date:

Tuesday, October 1, 2013

  Actual Average Record
Temperature  
Mean Temperature 84 °F -  
Max Temperature 91 °F 85 °F 93 °F (2011)
Min Temperature 77 °F 72 °F 73 °F (1997)
Cooling Degree Days 19    
Growing Degree Days 34 (Base 50)    
Moisture  
Dew Point 76 °F    
Average Humidity 79    
Maximum Humidity 94    
Minimum Humidity 59    
Precipitation  
Precipitation 0.04 in 0.23 in - ()
Sea Level Pressure  
Sea Level Pressure 29.99 in    
Wind  
Wind Speed 3 mph ()    
Max Wind Speed 9 mph    
Max Gust Speed -    
Visibility 6.7 miles    
Events Rain , Thunderstorm    
Averages and records for this station are not official NWS values.
T = Trace of Precipitation, MM = Missing Value Source: Averaged Metar Reports

Daily Weather History Graph

Daily Weather History Graph

Search for Another Location

Airport:

Trip Planner

Search our weather history database for the weather conditions in past years. The results will help you decide how hot, cold, wet, or windy it might be!

Date:

Astronomy

Oct. 01, 2013 Rise Set
Actual Time 7:02 AM EDT 6:56 PM EDT
Civil Twilight 6:39 AM EDT 7:19 PM EDT
Nautical Twilight 6:12 AM EDT 7:45 PM EDT
Astronomical Twilight 5:46 AM EDT 8:12 PM EDT
Moon 3:52 AM EDT (10/1) 4:44 PM EDT (10/1)
Length of Visible Light 12h 39m
Length of Day
11h 54m
Waning Crescent, 12% of the Moon is Illuminated
Oct 1
Waning Crescent
Oct 4
New
Oct 11
First Quarter
Oct 18
Full
Oct 26
Last Quarter

Hourly Weather History & Observations

Time (EDT) Temp. Heat Index Dew Point Humidity Pressure Visibility Wind Dir Wind Speed Gust Speed Precip Events Conditions
12:00 AM 80.6 °F 86.2 °F 75.2 °F 84% 30.00 in 6.2 mi East 3.5 mph - N/A   Mostly Cloudy
2:00 AM 80 °F - 76 °F 82% 29.99 in 8 mi East 2.3 mph - -   Partly Cloudy
2:00 AM 80.6 °F 86.2 °F 75.2 °F 84% 29.98 in 6.2 mi East 2.3 mph - N/A   Partly Cloudy
3:00 AM 78.8 °F - 73.4 °F 83% 29.98 in 6.2 mi Calm Calm - N/A   Scattered Clouds
4:00 AM 78.8 °F - 73.4 °F 83% 29.96 in 6.2 mi Calm Calm - N/A Rain Light Rain Showers
5:00 AM 78 °F - 76 °F 94% 29.97 in 8 mi Calm Calm - - Rain Light Rain Showers
5:00 AM 78.8 °F - 77.0 °F 94% 29.97 in 6.2 mi Calm Calm - N/A   Scattered Clouds
6:00 AM 78.8 °F - 73.4 °F 83% 29.96 in 6.2 mi Variable 2.3 mph - N/A   Partly Cloudy
7:00 AM 78.8 °F - 75.2 °F 89% 29.98 in 6.2 mi Calm Calm - N/A   Partly Cloudy
8:00 AM 80 °F - 77 °F 87% 29.98 in 9 mi East 2.3 mph - -   Partly Cloudy
8:00 AM 82.4 °F 90.9 °F 77.0 °F 84% 29.98 in 6.2 mi Variable 2.3 mph - N/A   Partly Cloudy
9:00 AM 84.2 °F 92.3 °F 75.2 °F 74% 30.00 in 6.2 mi ENE 4.6 mph - N/A   Partly Cloudy
10:00 AM 87.8 °F 97.6 °F 75.2 °F 66% 30.01 in 6.2 mi ENE 4.6 mph - N/A   Scattered Clouds
11:00 AM 86 °F - 78 °F 71% 30.03 in 9 mi SE 5.8 mph - -   Partly Cloudy
11:00 AM 86.0 °F 99.3 °F 78.8 °F 79% 30.02 in 6.2 mi SE 5.8 mph - N/A   Scattered Clouds
12:00 PM 89.6 °F 99.8 °F 75.2 °F 62% 30.02 in 6.2 mi East 5.8 mph - N/A   Scattered Clouds
1:00 PM 89.6 °F 99.8 °F 75.2 °F 62% 30.01 in 6.2 mi ESE 4.6 mph - N/A   Scattered Clouds
2:00 PM 89 °F - 77 °F 60% 29.99 in 9 mi ESE 6.9 mph - -   Partly Cloudy
2:00 PM 89.6 °F 102.2 °F 77.0 °F 66% 29.99 in 6.2 mi ESE 6.9 mph - N/A   Scattered Clouds
3:00 PM 91.4 °F 102.5 °F 75.2 °F 59% 29.98 in 6.2 mi SE 9.2 mph - N/A   Scattered Clouds
4:00 PM 86.0 °F 96.9 °F 77.0 °F 74% 29.98 in 6.2 mi NE 4.6 mph - N/A   Scattered Clouds
5:00 PM 86 °F - 76 °F 66% 29.96 in 8 mi ESE 3.5 mph - -   Partly Cloudy
5:00 PM 86.0 °F 96.9 °F 77.0 °F 74% 29.96 in 6.2 mi ESE 3.5 mph - N/A   Mostly Cloudy
6:00 PM 82.4 °F 89.5 °F 75.2 °F 79% 29.98 in 6.2 mi Variable 2.3 mph - N/A   Mostly Cloudy
7:00 PM 77.0 °F - 75.2 °F 94% 30.00 in 5.6 mi North - - N/A Rain , Thunderstorm Light Thunderstorms and Rain
8:00 PM 77 °F - 75 °F 93% 30.01 in 8 mi West 5.8 mph - - Rain , Thunderstorm Thunderstorms and Rain
8:00 PM 77.0 °F - 75.2 °F 94% 30.01 in 6.2 mi Calm Calm - N/A Rain , Thunderstorm Light Thunderstorms and Rain
9:00 PM 77.0 °F - 73.4 °F 89% 30.03 in 6.2 mi NW 3.5 mph - N/A Rain , Thunderstorm Light Thunderstorms and Rain
11:00 PM 79 °F - 76 °F 88% 30.03 in 7 mi NNE 3.5 mph - - Rain Light Rain Showers